Location: Bouchavesnes-Bergen
(49.9859°N, 2.9203°E)
Time: 04:54:04
(UTC+00:00)

CENTAUR R/B - Pass Details

Date: 09 March 2021
Orbit: 742 x 1446 km, 63.4° (Epoch: 31 March)

Event Time Altitude Azimuth Distance (km) Brightness Sun altitude
Rises 01:50:57 0° 311° (NW) 3,966 5.7 -38.7°
Reaches altitude 10° 01:53:41 10° 318° (NW) 3,105 5.2 -38.5°
Maximum altitude 02:00:56 45° 29° (NNE) 1,735 4.0 -37.7°
Drops below altitude 10° 02:09:08 10° 100° (E) 3,503 5.7 -36.9°
Sets 02:12:23 0° 107° (ESE) 4,516 6.3 -36.5°
